Year,Month,Day,Hour,Minute,Value (Times are PST for insolation in W/m^2)
2012,11,05,00,00,0.00
2012,11,05,00,01,0.00
2012,11,05,00,02,0.00
2012,11,05,00,03,0.00
2012,11,05,00,04,0.00
2012,11,05,00,05,0.00
2012,11,05,00,06,0.00
2012,11,05,00,07,0.00
2012,11,05,00,08,0.00
2012,11,05,00,09,0.00
2012,11,05,00,10,0.00
2012,11,05,00,11,0.00
2012,11,05,00,12,0.00
2012,11,05,00,16,0.00
2012,11,05,00,17,0.00
2012,11,05,00,18,0.00
2012,11,05,00,19,0.00
2012,11,05,00,20,0.00
2012,11,05,00,21,0.00
2012,11,05,00,22,0.00
2012,11,05,00,23,0.00
2012,11,05,00,24,0.00
2012,11,05,00,25,0.00
2012,11,05,00,26,0.00
2012,11,05,00,27,0.00
2012,11,05,00,28,0.00
2012,11,05,00,29,0.00
2012,11,05,00,30,0.00
2012,11,05,00,31,0.00
2012,11,05,00,32,0.00
2012,11,05,00,33,0.00
2012,11,05,00,34,0.00
2012,11,05,00,35,0.00
2012,11,05,00,36,0.00
2012,11,05,00,37,0.00
2012,11,05,00,38,0.00
2012,11,05,00,39,0.00
2012,11,05,00,40,0.00
2012,11,05,00,41,0.00
2012,11,05,00,42,0.00
2012,11,05,00,43,0.00
2012,11,05,00,44,0.00
2012,11,05,00,45,0.00
2012,11,05,00,46,0.00
2012,11,05,00,47,0.00
2012,11,05,00,48,0.00
2012,11,05,00,49,0.00
2012,11,05,00,50,0.00
2012,11,05,00,51,0.00
2012,11,05,00,52,0.00
2012,11,05,00,53,0.00
2012,11,05,00,54,0.00
2012,11,05,00,55,0.00
2012,11,05,00,56,0.00
2012,11,05,00,57,0.00
2012,11,05,00,58,0.00
2012,11,05,00,59,0.00
2012,11,05,01,00,0.00
2012,11,05,01,01,0.00
2012,11,05,01,02,0.00
2012,11,05,01,03,0.00
2012,11,05,01,04,0.00
2012,11,05,01,05,0.00
2012,11,05,01,06,0.00
2012,11,05,01,07,0.00
2012,11,05,01,08,0.00
2012,11,05,01,09,0.00
2012,11,05,01,10,0.00
2012,11,05,01,11,0.00
2012,11,05,01,12,0.00
2012,11,05,01,13,0.00
2012,11,05,01,14,0.00
2012,11,05,01,15,0.00
2012,11,05,01,16,0.00
2012,11,05,01,17,0.00
2012,11,05,01,18,0.00
2012,11,05,01,19,0.00
2012,11,05,01,20,0.00
2012,11,05,01,21,0.00
2012,11,05,01,22,0.00
2012,11,05,01,23,0.00
2012,11,05,01,24,0.00
2012,11,05,01,25,0.00
2012,11,05,01,26,0.00
2012,11,05,01,27,0.00
2012,11,05,01,28,0.00
2012,11,05,01,29,0.00
2012,11,05,01,30,0.00
2012,11,05,01,31,0.00
2012,11,05,01,32,0.00
2012,11,05,01,33,0.00
2012,11,05,01,34,0.00
2012,11,05,01,35,0.00
2012,11,05,01,36,0.00
2012,11,05,01,37,0.00
2012,11,05,01,38,0.00
2012,11,05,01,39,0.00
2012,11,05,01,40,0.00
2012,11,05,01,41,0.00
2012,11,05,01,42,0.00
2012,11,05,01,43,0.00
2012,11,05,01,44,0.00
2012,11,05,01,45,0.00
2012,11,05,01,46,0.00
2012,11,05,01,47,0.00
2012,11,05,01,48,0.00
2012,11,05,01,49,0.00
2012,11,05,01,50,0.00
2012,11,05,01,51,0.00
2012,11,05,01,52,0.00
2012,11,05,01,53,0.00
2012,11,05,01,54,0.00
2012,11,05,01,55,0.00
2012,11,05,01,56,0.00
2012,11,05,01,57,0.00
2012,11,05,01,58,0.00
2012,11,05,01,59,0.00
2012,11,05,02,00,0.00
2012,11,05,02,01,0.00
2012,11,05,02,02,0.00
2012,11,05,02,03,0.00
2012,11,05,02,04,0.00
2012,11,05,02,05,0.00
2012,11,05,02,06,0.00
2012,11,05,02,07,0.00
2012,11,05,02,08,0.00
2012,11,05,02,09,0.00
2012,11,05,02,10,0.00
2012,11,05,02,11,0.00
2012,11,05,02,12,0.00
2012,11,05,02,13,0.00
2012,11,05,02,14,0.00
2012,11,05,02,15,0.00
2012,11,05,02,16,0.00
2012,11,05,02,17,0.00
2012,11,05,02,18,0.00
2012,11,05,02,19,0.00
2012,11,05,02,20,0.00
2012,11,05,02,21,0.00
2012,11,05,02,22,0.00
2012,11,05,02,23,0.00
2012,11,05,02,24,0.00
2012,11,05,02,25,0.00
2012,11,05,02,26,0.00
2012,11,05,02,27,0.00
2012,11,05,02,28,0.00
2012,11,05,02,29,0.00
2012,11,05,02,30,0.00
2012,11,05,02,31,0.00
2012,11,05,02,32,0.00
2012,11,05,02,33,0.00
2012,11,05,02,34,0.00
2012,11,05,02,35,0.00
2012,11,05,02,36,0.00
2012,11,05,02,37,0.00
2012,11,05,02,38,0.00
2012,11,05,02,39,0.00
2012,11,05,02,40,0.00
2012,11,05,02,41,0.00
2012,11,05,02,42,0.00
2012,11,05,02,43,0.00
2012,11,05,02,44,0.00
2012,11,05,02,45,0.00
2012,11,05,02,46,0.00
2012,11,05,02,47,0.00
2012,11,05,02,48,0.00
2012,11,05,02,49,0.00
2012,11,05,02,50,0.00
2012,11,05,02,51,0.00
2012,11,05,02,52,0.00
2012,11,05,02,53,0.00
2012,11,05,02,54,0.00
2012,11,05,02,55,0.00
2012,11,05,02,56,0.00
2012,11,05,02,57,0.00
2012,11,05,02,58,0.00
2012,11,05,02,59,0.00
2012,11,05,03,00,0.00
2012,11,05,03,01,0.00
2012,11,05,03,02,0.00
2012,11,05,03,03,0.00
2012,11,05,03,04,0.00
2012,11,05,03,05,0.00
2012,11,05,03,06,0.00
2012,11,05,03,07,0.00
2012,11,05,03,08,0.00
2012,11,05,03,09,0.00
2012,11,05,03,10,0.00
2012,11,05,03,11,0.00
2012,11,05,03,12,0.00
2012,11,05,03,13,0.00
2012,11,05,03,14,0.00
2012,11,05,03,15,0.00
2012,11,05,03,16,0.00
2012,11,05,03,17,0.00
2012,11,05,03,18,0.00
2012,11,05,03,19,0.00
2012,11,05,03,20,0.00
2012,11,05,03,21,0.00
2012,11,05,03,22,0.00
2012,11,05,03,23,0.00
2012,11,05,03,24,0.00
2012,11,05,03,25,0.00
2012,11,05,03,26,0.00
2012,11,05,03,27,0.00
2012,11,05,03,28,0.00
2012,11,05,03,29,0.00
2012,11,05,03,30,0.00
2012,11,05,03,31,0.00
2012,11,05,03,32,0.00
2012,11,05,03,33,0.00
2012,11,05,03,34,0.00
2012,11,05,03,35,0.00
2012,11,05,03,36,0.00
2012,11,05,03,37,0.00
2012,11,05,03,38,0.00
2012,11,05,03,39,0.00
2012,11,05,03,40,0.00
2012,11,05,03,41,0.00
2012,11,05,03,42,0.00
2012,11,05,03,43,0.00
2012,11,05,03,44,0.00
2012,11,05,03,45,0.00
2012,11,05,03,46,0.00
2012,11,05,03,47,0.00
2012,11,05,03,48,0.00
2012,11,05,03,49,0.00
2012,11,05,03,50,0.00
2012,11,05,03,51,0.00
2012,11,05,03,52,0.00
2012,11,05,03,53,0.00
2012,11,05,03,54,0.00
2012,11,05,03,55,0.00
2012,11,05,03,56,0.00
2012,11,05,03,57,0.00
2012,11,05,03,58,0.00
2012,11,05,03,59,0.00
2012,11,05,04,00,0.00
2012,11,05,04,01,0.00
2012,11,05,04,02,0.00
2012,11,05,04,03,0.00
2012,11,05,04,04,0.00
2012,11,05,04,05,0.00
2012,11,05,04,06,0.00
2012,11,05,04,07,0.00
2012,11,05,04,08,0.00
2012,11,05,04,09,0.00
2012,11,05,04,10,0.00
2012,11,05,04,11,0.00
2012,11,05,04,12,0.00
2012,11,05,04,13,0.00
2012,11,05,04,14,0.00
2012,11,05,04,15,0.00
2012,11,05,04,16,0.00
2012,11,05,04,17,0.00
2012,11,05,04,18,0.00
2012,11,05,04,19,0.00
2012,11,05,04,20,0.00
2012,11,05,04,21,0.00
2012,11,05,04,22,0.00
2012,11,05,04,23,0.00
2012,11,05,04,24,0.00
2012,11,05,04,25,0.00
2012,11,05,04,26,0.00
2012,11,05,04,27,0.00
2012,11,05,04,28,0.00
2012,11,05,04,29,0.00
2012,11,05,04,30,0.00
2012,11,05,04,31,0.00
2012,11,05,04,32,0.00
2012,11,05,04,33,0.00
2012,11,05,04,34,0.00
2012,11,05,04,35,0.00
2012,11,05,04,36,0.00
2012,11,05,04,37,0.00
2012,11,05,04,38,0.00
2012,11,05,04,39,0.00
2012,11,05,04,40,0.00
2012,11,05,04,41,0.00
2012,11,05,04,42,0.00
2012,11,05,04,43,0.00
2012,11,05,04,44,0.00
2012,11,05,04,45,0.00
2012,11,05,04,46,0.00
2012,11,05,04,47,0.00
2012,11,05,04,48,0.00
2012,11,05,04,49,0.00
2012,11,05,04,50,0.00
2012,11,05,04,51,0.00
2012,11,05,04,52,0.00
2012,11,05,04,53,0.00
2012,11,05,04,54,0.00
2012,11,05,04,55,0.00
2012,11,05,04,56,0.00
2012,11,05,04,57,0.00
2012,11,05,04,58,0.00
2012,11,05,04,59,0.00
2012,11,05,05,00,0.00
2012,11,05,05,01,0.00
2012,11,05,05,02,0.00
2012,11,05,05,03,0.00
2012,11,05,05,04,0.00
2012,11,05,05,05,0.00
2012,11,05,05,06,0.00
2012,11,05,05,07,0.00
2012,11,05,05,08,0.00
2012,11,05,05,09,0.00
2012,11,05,05,10,0.00
2012,11,05,05,11,0.00
2012,11,05,05,12,0.00
2012,11,05,05,13,0.00
2012,11,05,05,14,0.00
2012,11,05,05,15,0.00
2012,11,05,05,16,0.00
2012,11,05,05,17,0.00
2012,11,05,05,18,0.00
2012,11,05,05,19,0.00
2012,11,05,05,20,0.00
2012,11,05,05,21,0.00
2012,11,05,05,22,0.00
2012,11,05,05,23,0.00
2012,11,05,05,24,0.00
2012,11,05,05,25,0.00
2012,11,05,05,26,0.00
2012,11,05,05,27,0.00
2012,11,05,05,28,0.00
2012,11,05,05,29,0.00
2012,11,05,05,30,0.00
2012,11,05,05,31,0.00
2012,11,05,05,32,0.00
2012,11,05,05,33,0.00
2012,11,05,05,34,0.00
2012,11,05,05,35,0.00
2012,11,05,05,36,0.00
2012,11,05,05,37,0.00
2012,11,05,05,38,0.00
2012,11,05,05,39,0.00
2012,11,05,05,40,0.00
2012,11,05,05,41,0.00
2012,11,05,05,42,0.00
2012,11,05,05,43,0.00
2012,11,05,05,44,0.00
2012,11,05,05,45,0.00
2012,11,05,05,46,0.00
2012,11,05,05,47,0.00
2012,11,05,05,48,0.00
2012,11,05,05,49,0.00
2012,11,05,05,50,0.00
2012,11,05,05,51,0.00
2012,11,05,05,52,0.00
2012,11,05,05,53,0.00
2012,11,05,05,54,0.00
2012,11,05,05,55,0.00
2012,11,05,05,56,0.00
2012,11,05,05,57,0.00
2012,11,05,05,58,0.00
2012,11,05,05,59,0.00
2012,11,05,06,00,0.00
2012,11,05,06,01,0.00
2012,11,05,06,02,0.00
2012,11,05,06,03,0.00
2012,11,05,06,04,0.00
2012,11,05,06,05,0.00
2012,11,05,06,06,0.00
2012,11,05,06,07,0.00
2012,11,05,06,08,0.00
2012,11,05,06,09,0.00
2012,11,05,06,10,0.00
2012,11,05,06,11,0.00
2012,11,05,06,12,0.00
2012,11,05,06,13,0.00
2012,11,05,06,14,0.00
2012,11,05,06,15,0.00
2012,11,05,06,16,0.00
2012,11,05,06,17,0.00
2012,11,05,06,18,0.00
2012,11,05,06,19,0.00
2012,11,05,06,20,0.00
2012,11,05,06,21,0.00
2012,11,05,06,22,0.00
2012,11,05,06,23,0.00
2012,11,05,06,24,0.00
2012,11,05,06,25,0.00
2012,11,05,06,26,0.00
2012,11,05,06,27,0.00
2012,11,05,06,28,0.00
2012,11,05,06,29,0.00
2012,11,05,06,30,0.00
2012,11,05,06,31,0.00
2012,11,05,06,32,0.00
2012,11,05,06,33,0.00
2012,11,05,06,34,0.00
2012,11,05,06,35,0.00
2012,11,05,06,36,0.00
2012,11,05,06,37,0.00
2012,11,05,06,38,0.00
2012,11,05,06,39,0.00
2012,11,05,06,40,0.00
2012,11,05,06,41,0.00
2012,11,05,06,42,0.00
2012,11,05,06,43,0.00
2012,11,05,06,44,0.00
2012,11,05,06,45,0.00
2012,11,05,06,46,0.00
2012,11,05,06,47,0.00
2012,11,05,06,48,0.00
2012,11,05,06,49,0.00
2012,11,05,06,50,0.00
2012,11,05,06,51,0.00
2012,11,05,06,52,0.00
2012,11,05,06,53,0.00
2012,11,05,06,54,0.00
2012,11,05,06,55,0.00
2012,11,05,06,56,0.00
2012,11,05,06,57,0.00
2012,11,05,06,58,0.00
2012,11,05,06,59,0.00
2012,11,05,07,00,0.00
2012,11,05,07,01,0.00
2012,11,05,07,02,0.00
2012,11,05,07,03,0.00
2012,11,05,07,04,0.00
2012,11,05,07,05,0.00
2012,11,05,07,06,0.00
2012,11,05,07,07,0.00
2012,11,05,07,08,0.00
2012,11,05,07,09,0.00
2012,11,05,07,10,0.00
2012,11,05,07,11,0.00
2012,11,05,07,12,0.00
2012,11,05,07,13,0.00
2012,11,05,07,14,1.00
2012,11,05,07,15,5.00
2012,11,05,07,16,5.00
2012,11,05,07,17,5.00
2012,11,05,07,18,5.70
2012,11,05,07,19,7.00
2012,11,05,07,20,7.00
2012,11,05,07,21,7.90
2012,11,05,07,22,9.00
2012,11,05,07,23,10.20
2012,11,05,07,24,11.00
2012,11,05,07,25,11.60
2012,11,05,07,26,13.40
2012,11,05,07,27,15.50
2012,11,05,07,28,17.60
2012,11,05,07,29,18.00
2012,11,05,07,30,18.00
2012,11,05,07,31,18.90
2012,11,05,07,32,20.90
2012,11,05,07,33,23.10
2012,11,05,07,34,25.20
2012,11,05,07,35,28.60
2012,11,05,07,36,32.80
2012,11,05,07,37,37.40
2012,11,05,07,38,38.00
2012,11,05,07,39,34.50
2012,11,05,07,40,32.70
2012,11,05,07,41,32.00
2012,11,05,07,42,32.00
2012,11,05,07,43,32.50
2012,11,05,07,44,35.00
2012,11,05,07,45,34.80
2012,11,05,07,46,33.00
2012,11,05,07,47,34.30
2012,11,05,07,48,37.70
2012,11,05,07,49,41.10
2012,11,05,07,50,40.50
2012,11,05,07,51,40.00
2012,11,05,07,52,40.00
2012,11,05,07,53,41.70
2012,11,05,07,54,42.00
2012,11,05,07,55,42.00
2012,11,05,07,56,43.90
2012,11,05,07,57,44.00
2012,11,05,07,58,44.00
2012,11,05,07,59,44.00
2012,11,05,08,00,44.40
2012,11,05,08,01,46.00
2012,11,05,08,02,46.00
2012,11,05,08,03,47.80
2012,11,05,08,04,52.10
2012,11,05,08,05,54.70
2012,11,05,08,06,57.80
2012,11,05,08,07,60.00
2012,11,05,08,08,58.90
2012,11,05,08,09,56.90
2012,11,05,08,10,54.70
2012,11,05,08,11,52.00
2012,11,05,08,12,51.00
2012,11,05,08,13,51.00
2012,11,05,08,14,47.80
2012,11,05,08,15,47.00
2012,11,05,08,16,48.70
2012,11,05,08,17,49.00
2012,11,05,08,18,50.90
2012,11,05,08,19,54.90
2012,11,05,08,20,72.10
2012,11,05,08,21,71.90
2012,11,05,08,22,54.70
2012,11,05,08,23,70.30
2012,11,05,08,24,93.00
2012,11,05,08,25,90.00
2012,11,05,08,26,72.90
2012,11,05,08,27,53.80
2012,11,05,08,28,70.60
2012,11,05,08,29,98.50
2012,11,05,08,30,130.50
2012,11,05,08,31,151.90
2012,11,05,08,32,151.50
2012,11,05,08,33,149.00
2012,11,05,08,34,158.10
2012,11,05,08,35,146.30
2012,11,05,08,36,121.80
2012,11,05,08,37,104.80
2012,11,05,08,38,86.80
2012,11,05,08,39,89.10
2012,11,05,08,40,99.00
2012,11,05,08,41,77.30
2012,11,05,08,42,63.70
2012,11,05,08,43,63.00
2012,11,05,08,44,63.40
2012,11,05,08,45,65.90
2012,11,05,08,46,60.40
2012,11,05,08,47,61.50
2012,11,05,08,48,60.60
2012,11,05,08,49,63.00
2012,11,05,08,50,65.00
2012,11,05,08,51,67.00
2012,11,05,08,52,71.70
2012,11,05,08,53,75.00
2012,11,05,08,54,79.70
2012,11,05,08,55,83.00
2012,11,05,08,56,83.00
2012,11,05,08,57,84.90
2012,11,05,08,58,88.80
2012,11,05,08,59,93.80
2012,11,05,09,00,100.20
2012,11,05,09,01,98.00
2012,11,05,09,02,97.00
2012,11,05,09,03,97.90
2012,11,05,09,04,101.80
2012,11,05,09,05,116.70
2012,11,05,09,06,185.00
2012,11,05,09,07,172.40
2012,11,05,09,08,140.80
2012,11,05,09,09,152.80
2012,11,05,09,10,191.50
2012,11,05,09,11,160.60
2012,11,05,09,12,201.90
2012,11,05,09,13,191.30
2012,11,05,09,14,207.60
2012,11,05,09,15,196.20
2012,11,05,09,16,172.00
2012,11,05,09,17,173.10
2012,11,05,09,18,187.80
2012,11,05,09,19,185.00
2012,11,05,09,20,167.90
2012,11,05,09,21,162.00
2012,11,05,09,22,153.80
2012,11,05,09,23,148.60
2012,11,05,09,24,144.80
2012,11,05,09,25,144.00
2012,11,05,09,26,142.20
2012,11,05,09,27,141.10
2012,11,05,09,28,144.00
2012,11,05,09,29,141.90
2012,11,05,09,30,138.80
2012,11,05,09,31,136.60
2012,11,05,09,32,132.80
2012,11,05,09,33,127.40
2012,11,05,09,34,124.00
2012,11,05,09,35,120.70
2012,11,05,09,36,120.00
2012,11,05,09,37,120.00
2012,11,05,09,38,120.50
2012,11,05,09,39,122.00
2012,11,05,09,40,124.10
2012,11,05,09,41,126.70
2012,11,05,09,42,129.30
2012,11,05,09,43,130.00
2012,11,05,09,44,130.00
2012,11,05,09,45,128.50
2012,11,05,09,46,127.20
2012,11,05,09,47,125.30
2012,11,05,09,48,125.00
2012,11,05,09,49,126.80
2012,11,05,09,50,129.90
2012,11,05,09,51,134.00
2012,11,05,09,52,144.20
2012,11,05,09,53,148.90
2012,11,05,09,54,148.00
2012,11,05,09,55,148.00
2012,11,05,09,56,147.50
2012,11,05,09,57,147.80
2012,11,05,09,58,157.80
2012,11,05,09,59,175.60
2012,11,05,10,00,228.00
2012,11,05,10,01,274.50
2012,11,05,10,02,285.00
2012,11,05,10,03,301.50
2012,11,05,10,04,301.20
2012,11,05,10,05,310.00
2012,11,05,10,06,302.30
2012,11,05,10,07,271.70
2012,11,05,10,08,268.80
2012,11,05,10,09,256.20
2012,11,05,10,10,217.00
2012,11,05,10,11,188.60
2012,11,05,10,12,219.30
2012,11,05,10,13,269.40
2012,11,05,10,14,189.40
2012,11,05,10,15,191.80
2012,11,05,10,16,192.60
2012,11,05,10,17,240.00
2012,11,05,10,18,274.00
2012,11,05,10,19,301.20
2012,11,05,10,20,383.00
2012,11,05,10,21,356.80
2012,11,05,10,22,297.30
2012,11,05,10,23,251.00
2012,11,05,10,24,209.00
2012,11,05,10,25,279.60
2012,11,05,10,26,366.00
2012,11,05,10,27,327.00
2012,11,05,10,28,295.00
2012,11,05,10,29,254.10
2012,11,05,10,30,220.80
2012,11,05,10,31,216.00
2012,11,05,10,32,216.00
2012,11,05,10,33,184.00
2012,11,05,10,34,183.60
2012,11,05,10,35,172.50
2012,11,05,10,36,186.30
2012,11,05,10,37,165.00
2012,11,05,10,38,168.60
2012,11,05,10,39,161.80
2012,11,05,10,40,159.20
2012,11,05,10,41,155.00
2012,11,05,10,42,155.20
2012,11,05,10,43,155.10
2012,11,05,10,44,149.20
2012,11,05,10,45,134.70
2012,11,05,10,46,118.80
2012,11,05,10,47,111.00
2012,11,05,10,48,108.30
2012,11,05,10,49,105.00
2012,11,05,10,50,100.90
2012,11,05,10,51,98.00
2012,11,05,10,52,282.00
2012,11,05,10,53,373.20
2012,11,05,10,54,386.50
2012,11,05,10,55,377.40
2012,11,05,10,56,405.00
2012,11,05,10,57,404.60
2012,11,05,10,58,340.90
2012,11,05,10,59,402.20
2012,11,05,11,00,426.20
2012,11,05,11,01,431.70
2012,11,05,11,02,417.50
2012,11,05,11,03,344.80
2012,11,05,11,04,413.60
2012,11,05,11,05,403.20
2012,11,05,11,06,405.80
2012,11,05,11,07,387.50
2012,11,05,11,08,365.50
2012,11,05,11,09,377.00
2012,11,05,11,10,409.90
2012,11,05,11,11,425.20
2012,11,05,11,12,434.00
2012,11,05,11,13,428.50
2012,11,05,11,14,424.00
2012,11,05,11,15,415.50
2012,11,05,11,16,396.60
2012,11,05,11,17,391.40
2012,11,05,11,18,395.80
2012,11,05,11,19,355.40
2012,11,05,11,20,380.40
2012,11,05,11,21,309.60
2012,11,05,11,22,325.60
2012,11,05,11,23,364.00
2012,11,05,11,24,332.70
2012,11,05,11,25,343.70
2012,11,05,11,26,323.00
2012,11,05,11,27,326.90
2012,11,05,11,28,346.20
2012,11,05,11,29,336.40
2012,11,05,11,30,310.70
2012,11,05,11,31,265.90
2012,11,05,11,32,251.60
2012,11,05,11,33,241.00
2012,11,05,11,34,247.10
2012,11,05,11,35,245.00
2012,11,05,11,36,239.00
2012,11,05,11,37,229.40
2012,11,05,11,38,249.50
2012,11,05,11,39,297.20
2012,11,05,11,40,335.50
2012,11,05,11,41,347.60
2012,11,05,11,42,356.80
2012,11,05,11,43,359.00
2012,11,05,11,44,344.70
2012,11,05,11,45,329.70
2012,11,05,11,46,378.00
2012,11,05,11,47,341.50
2012,11,05,11,48,388.20
2012,11,05,11,49,395.10
2012,11,05,11,50,413.40
2012,11,05,11,51,357.00
2012,11,05,11,52,367.30
2012,11,05,11,53,390.00
2012,11,05,11,54,376.70
2012,11,05,11,55,369.60
2012,11,05,11,56,348.90
2012,11,05,11,57,321.50
2012,11,05,11,58,317.70
2012,11,05,11,59,315.70
2012,11,05,12,00,306.30
2012,11,05,12,01,308.00
2012,11,05,12,02,316.40
2012,11,05,12,03,326.80
2012,11,05,12,04,367.70
2012,11,05,12,05,372.40
2012,11,05,12,06,367.60
2012,11,05,12,07,385.00
2012,11,05,12,08,383.20
2012,11,05,12,09,349.60
2012,11,05,12,10,256.60
2012,11,05,12,11,276.20
2012,11,05,12,12,192.80
2012,11,05,12,13,177.50
2012,11,05,12,14,223.00
2012,11,05,12,15,223.00
2012,11,05,12,16,223.00
2012,11,05,12,17,204.30
2012,11,05,12,18,163.70
2012,11,05,12,19,175.60
2012,11,05,12,20,183.70
2012,11,05,12,21,160.00
2012,11,05,12,22,149.90
2012,11,05,12,23,151.40
2012,11,05,12,24,156.20
2012,11,05,12,25,158.00
2012,11,05,12,26,174.90
2012,11,05,12,27,184.80
2012,11,05,12,28,189.20
2012,11,05,12,29,200.20
2012,11,05,12,30,218.10
2012,11,05,12,31,243.40
2012,11,05,12,32,272.60
2012,11,05,12,33,278.50
2012,11,05,12,34,361.00
2012,11,05,12,35,324.70
2012,11,05,12,36,239.60
2012,11,05,12,37,210.40
2012,11,05,12,38,194.20
2012,11,05,12,39,181.80
2012,11,05,12,40,168.50
2012,11,05,12,41,159.60
2012,11,05,12,42,157.70
2012,11,05,12,43,162.40
2012,11,05,12,44,169.70
2012,11,05,12,45,180.10
2012,11,05,12,46,193.40
2012,11,05,12,47,211.00
2012,11,05,12,48,235.50
2012,11,05,12,49,248.90
2012,11,05,12,50,272.00
2012,11,05,12,51,291.00
2012,11,05,12,52,294.00
2012,11,05,12,53,294.00
2012,11,05,12,54,294.00
2012,11,05,12,55,503.00
2012,11,05,12,56,494.10
2012,11,05,12,57,325.10
2012,11,05,12,58,324.30
2012,11,05,12,59,311.60
2012,11,05,13,00,324.90
2012,11,05,13,01,343.90
2012,11,05,13,02,348.00
2012,11,05,13,03,316.10
2012,11,05,13,04,338.00
2012,11,05,13,05,334.00
2012,11,05,13,06,339.90
2012,11,05,13,07,350.00
2012,11,05,13,08,348.00
2012,11,05,13,09,353.20
2012,11,05,13,10,359.00
2012,11,05,13,11,359.30
2012,11,05,13,12,303.00
2012,11,05,13,13,296.30
2012,11,05,13,14,301.00
2012,11,05,13,15,340.60
2012,11,05,13,16,352.20
2012,11,05,13,17,350.10
2012,11,05,13,18,350.00
2012,11,05,13,19,323.90
2012,11,05,13,20,359.00
2012,11,05,13,21,358.40
2012,11,05,13,22,351.50
2012,11,05,13,23,347.20
2012,11,05,13,24,359.80
2012,11,05,13,25,355.30
2012,11,05,13,26,353.40
2012,11,05,13,27,371.80
2012,11,05,13,28,377.20
2012,11,05,13,29,353.60
2012,11,05,13,30,337.50
2012,11,05,13,31,357.10
2012,11,05,13,32,368.20
2012,11,05,13,33,372.20
2012,11,05,13,34,374.00
2012,11,05,13,35,365.60
2012,11,05,13,36,354.50
2012,11,05,13,37,334.40
2012,11,05,13,38,315.70
2012,11,05,13,39,308.50
2012,11,05,13,40,312.50
2012,11,05,13,41,276.10
2012,11,05,13,42,305.90
2012,11,05,13,43,302.10
2012,11,05,13,44,267.80
2012,11,05,13,45,277.80
2012,11,05,13,46,304.50
2012,11,05,13,47,308.90
2012,11,05,13,48,286.60
2012,11,05,13,49,262.00
2012,11,05,13,50,246.10
2012,11,05,13,51,257.00
2012,11,05,13,52,243.80
2012,11,05,13,53,241.00
2012,11,05,13,54,249.80
2012,11,05,13,55,261.10
2012,11,05,13,56,271.20
2012,11,05,13,57,270.10
2012,11,05,13,58,269.90
2012,11,05,13,59,286.80
2012,11,05,14,00,230.40
2012,11,05,14,01,163.90
2012,11,05,14,02,223.90
2012,11,05,14,03,187.90
2012,11,05,14,04,194.40
2012,11,05,14,05,190.50
2012,11,05,14,06,271.60
2012,11,05,14,07,201.40
2012,11,05,14,08,246.60
2012,11,05,14,09,199.20
2012,11,05,14,10,205.50
2012,11,05,14,11,260.80
2012,11,05,14,12,262.10
2012,11,05,14,13,246.60
2012,11,05,14,14,234.80
2012,11,05,14,15,232.00
2012,11,05,14,16,209.00
2012,11,05,14,17,195.50
2012,11,05,14,18,215.40
2012,11,05,14,19,219.80
2012,11,05,14,20,205.00
2012,11,05,14,21,199.00
2012,11,05,14,22,192.20
2012,11,05,14,23,182.80
2012,11,05,14,24,178.40
2012,11,05,14,25,176.20
2012,11,05,14,26,176.00
2012,11,05,14,27,182.70
2012,11,05,14,28,182.90
2012,11,05,14,29,180.10
2012,11,05,14,30,172.00
2012,11,05,14,31,170.20
2012,11,05,14,32,163.80
2012,11,05,14,33,166.50
2012,11,05,14,34,173.00
2012,11,05,14,35,183.20
2012,11,05,14,36,168.30
2012,11,05,14,37,176.00
2012,11,05,14,38,175.40
2012,11,05,14,39,170.00
2012,11,05,14,40,159.60
2012,11,05,14,41,145.00
2012,11,05,14,42,141.00
2012,11,05,14,43,136.40
2012,11,05,14,44,137.60
2012,11,05,14,45,133.50
2012,11,05,14,46,132.00
2012,11,05,14,47,118.50
2012,11,05,14,48,120.20
2012,11,05,14,49,107.70
2012,11,05,14,50,104.20
2012,11,05,14,51,101.70
2012,11,05,14,52,96.80
2012,11,05,14,53,94.60
2012,11,05,14,54,91.00
2012,11,05,14,55,90.80
2012,11,05,14,56,90.20
2012,11,05,14,57,91.60
2012,11,05,14,58,94.40
2012,11,05,14,59,97.40
2012,11,05,15,00,98.80
2012,11,05,15,01,100.00
2012,11,05,15,02,100.00
2012,11,05,15,03,100.00
2012,11,05,15,04,100.00
2012,11,05,15,05,100.00
2012,11,05,15,06,100.00
2012,11,05,15,07,101.50
2012,11,05,15,08,103.50
2012,11,05,15,09,141.60
2012,11,05,15,10,170.40
2012,11,05,15,11,185.90
2012,11,05,15,12,183.30
2012,11,05,15,13,157.40
2012,11,05,15,14,131.80
2012,11,05,15,15,128.30
2012,11,05,15,16,134.00
2012,11,05,15,17,135.00
2012,11,05,15,18,139.40
2012,11,05,15,19,140.00
2012,11,05,15,20,134.90
2012,11,05,15,21,126.20
2012,11,05,15,22,112.40
2012,11,05,15,23,101.60
2012,11,05,15,24,93.50
2012,11,05,15,25,81.00
2012,11,05,15,26,69.30
2012,11,05,15,27,65.00
2012,11,05,15,28,65.00
2012,11,05,15,29,57.20
2012,11,05,15,30,58.20
2012,11,05,15,31,63.80
2012,11,05,15,32,65.00
2012,11,05,15,33,55.40
2012,11,05,15,34,51.20
2012,11,05,15,35,51.00
2012,11,05,15,36,46.30
2012,11,05,15,37,44.00
2012,11,05,15,38,44.20
2012,11,05,15,39,46.30
2012,11,05,15,40,49.80
2012,11,05,15,41,55.00
2012,11,05,15,42,58.50
2012,11,05,15,43,60.90
2012,11,05,15,44,63.00
2012,11,05,15,45,65.20
2012,11,05,15,46,67.20
2012,11,05,15,47,63.70
2012,11,05,15,48,61.10
2012,11,05,15,49,57.80
2012,11,05,15,50,54.20
2012,11,05,15,51,51.70
2012,11,05,15,52,49.60
2012,11,05,15,53,49.00
2012,11,05,15,54,50.50
2012,11,05,15,55,51.00
2012,11,05,15,56,52.60
2012,11,05,15,57,53.00
2012,11,05,15,58,53.90
2012,11,05,15,59,55.90
2012,11,05,16,00,56.00
2012,11,05,16,01,55.80
2012,11,05,16,02,53.80
2012,11,05,16,03,52.60
2012,11,05,16,04,50.20
2012,11,05,16,05,46.80
2012,11,05,16,06,44.80
2012,11,05,16,07,41.30
2012,11,05,16,08,38.90
2012,11,05,16,09,36.10
2012,11,05,16,10,34.00
2012,11,05,16,11,33.00
2012,11,05,16,12,31.40
2012,11,05,16,13,28.80
2012,11,05,16,14,26.70
2012,11,05,16,15,26.00
2012,11,05,16,16,25.30
2012,11,05,16,17,23.50
2012,11,05,16,18,23.00
2012,11,05,16,19,23.00
2012,11,05,16,20,21.30
2012,11,05,16,21,21.00
2012,11,05,16,22,21.00
2012,11,05,16,23,21.00
2012,11,05,16,24,20.80
2012,11,05,16,25,19.00
2012,11,05,16,26,18.80
2012,11,05,16,27,18.00
2012,11,05,16,28,18.00
2012,11,05,16,29,18.00
2012,11,05,16,30,17.30
2012,11,05,16,31,15.20
2012,11,05,16,32,14.00
2012,11,05,16,33,14.00
2012,11,05,16,34,13.10
2012,11,05,16,35,11.40
2012,11,05,16,36,11.00
2012,11,05,16,37,9.80
2012,11,05,16,38,9.00
2012,11,05,16,39,7.50
2012,11,05,16,40,7.00
2012,11,05,16,41,5.40
2012,11,05,16,42,5.00
2012,11,05,16,43,0.50
2012,11,05,16,44,0.00
2012,11,05,16,45,0.00
2012,11,05,16,46,0.00
2012,11,05,16,47,0.00
2012,11,05,16,48,0.00
2012,11,05,16,49,0.00
2012,11,05,16,50,0.00
2012,11,05,16,51,0.00
2012,11,05,16,52,0.00
2012,11,05,16,53,0.00
2012,11,05,16,54,0.00
2012,11,05,16,55,0.00
2012,11,05,16,56,0.00
2012,11,05,16,57,0.00
2012,11,05,16,58,0.00
2012,11,05,16,59,0.00
2012,11,05,17,00,0.00
2012,11,05,17,01,0.00
2012,11,05,17,02,0.00
2012,11,05,17,03,0.00
2012,11,05,17,04,0.00
2012,11,05,17,05,0.00
2012,11,05,17,06,0.00
2012,11,05,17,07,0.00
2012,11,05,17,08,0.00
2012,11,05,17,09,0.00
2012,11,05,17,10,0.00
2012,11,05,17,11,0.00
2012,11,05,17,12,0.00
2012,11,05,17,13,0.00
2012,11,05,17,14,0.00
2012,11,05,17,15,0.00
2012,11,05,17,16,0.00
2012,11,05,17,17,0.00
2012,11,05,17,18,0.00
2012,11,05,17,19,0.00
2012,11,05,17,20,0.00
2012,11,05,17,21,0.00
2012,11,05,17,22,0.00
2012,11,05,17,23,0.00
2012,11,05,17,24,0.00
2012,11,05,17,25,0.00
2012,11,05,17,26,0.00
2012,11,05,17,27,0.00